sat.trackr.live / text

‹ back to catalog

STARLINK-35570

NORAD 66090 · 2025-236E

PAYLOAD ACTIVE UNKNOWN

§ Identity

Operator
Country
US
Launch date
2025-10-19
Launch site
AFWTR
Launch vehicle
Mass (kg)
RCS (m²)

Purposes: comms

External: N2YO · Heavens-Above · Gunter

§ Orbital elements

Epoch: 2026-05-25T03:23:21.883200Z

Period
94.10 min
Inclination
53.1591°
Eccentricity
0.0001166
Mean motion
15.30215412 rev/d
Perigee alt
474.4 km
Apogee alt
476.0 km
Semi-major
6,853.3 km
B*
5.8841e-4
RAAN
108.4752°
Arg perigee
120.6500°
Mean anomaly
239.4616°
Rev number
3,465

§ Raw data

STARLINK-355701 66090U 25236E   26145.14122550  .00017116  00000+0  58841-3 0  99912 66090  53.1591 108.4752 0001166 120.6500 239.4616 15.30215412 34655

JSON: /api/v1/satellites/66090 · /tle

For live sub-satellite position, see the globe view (requires WebGL).

§ Visibility from observer

Set your observer location to see the next 7 days of passes ≥ 10°. The values pass through the URL so the page stays shareable.

No JS? Fill the form by hand. The geolocation button needs JavaScript.